Regional Weather Roundup
Issued by NWS

Home | Current Version | Previous Version | Text Only | Print | Product List | Glossary Off
Versions: 1 2 3 4 5 6 7 8 9 10 11 12 13 14 15 16 17 18 19 20 21 22 23 24 25 26 27 28 29 30 31 32 33 34 35 36 37 38 39 40 41 42 43 44 45 46 47 48 49 50

000
ASUS43 KMPX 142010
RWRMN
WEATHER ROUNDUP FOR MINNESOTA
NATIONAL WEATHER SERVICE TWIN CITIES/CHANHASSEN MN
300 PM CDT SUN SEP 14 2014


NOTE: "FAIR" INDICATES FEW OR NO CLOUDS BELOW 12,000 FEET WITH NO
SIGNIFICANT WEATHER AND/OR OBSTRUCTIONS TO VISIBILITY. N/A MEANS
CURRENT SKY AND/OR WEATHER CONDITIONS ARE NOT AVAILABLE.

MNZ060>063-068>070-142100-
   Twin Cities Metro

CITY           SKY/WX    TMP DP  RH WIND       PRES   REMARKS
TWIN CITIES    CLOUDY    63  37  38 W13G24    30.11F
ST PAUL        MOSUNNY   63  38  39 W16G25    30.11F
CRYSTAL        PTSUNNY   64  36  35 W14       30.10F
BLAINE         PTSUNNY   64  39  39 W13G18    30.11S
LAKEVILLE      MOSUNNY   63  39  42 W10G17    30.11F
EDEN PRAIRIE   PTSUNNY   63  39  41 W13       30.10F
SOUTH ST PAUL  MOSUNNY   64  35  34 W12G17    30.10F
LAKE ELMO      FAIR      63  39  42 W15G22    30.11F
$$
MNZ001>005-007-008-013>017-022>024-027-028-142100-
   Northwest Minnesota

CITY           SKY/WX    TMP DP  RH WIND       PRES   REMARKS
BEMIDJI        CLOUDY    54  42  65 W14       30.08F
HALLOCK        MOSUNNY   55  43  62 NW15G21   30.08S
ROSEAU         MOSUNNY   61  46  59 W8        30.04F
WARROAD        MOSUNNY   55  48  76 W7        30.05R
THIEF RVR FALL PTSUNNY   54  45  71 NW6       30.08F
CROOKSTON      CLOUDY    54  45  71 NW9       30.11F
FOSSTON        CLOUDY    50  43  76 W8        30.11F
DETROIT LAKES  MOSUNNY   52  45  76 N6        30.12F
MOORHEAD       PTSUNNY   57  45  62 CALM      30.11F
PARK RAPIDS    CLOUDY    52  43  71 NW13      30.10F
MAHNOMEN       CLOUDY    51  42  70 NW13      30.11S
$$
MNZ006-009>011-018-025>026-142100-
   North Central Minnesota

CITY           SKY/WX    TMP DP  RH WIND       PRES   REMARKS
BAUDETTE       MOSUNNY   59  45  59 NW10      30.03F
FLAG ISLAND    PTSUNNY   55  43  62 N7        30.00F
INTL FALLS     MOSUNNY   54  42  64 NW9       30.01S
WASKISH        CLOUDY    55  46  71 CALM      30.05S
BIG FORK       MOSUNNY   55  43  62 W5        30.04S
LONGVILLE      CLOUDY    54  45  71 NW5       30.08S
GRAND RAPIDS   CLOUDY    52  43  71 NW15      30.07S
CRANE LAKE     CLOUDY    52  48  87 NW6       30.02R
ORR            CLOUDY    48  45  87 W7        30.00R
COOK           PTSUNNY   54  43  66 W13G22    30.02S
WALKER         CLOUDY    52  43  71 W8        30.09F
$$
MNZ012-019>021-037-142100-
   Northeast Minnesota

CITY           SKY/WX    TMP DP  RH WIND       PRES   REMARKS
DULUTH         PTSUNNY   58  41  53 NW16      30.04S
ELY            PTSUNNY   55  43  62 W15       29.99S
HIBBING        CLOUDY    54  42  64 W12       30.05S
EVELETH        MOSUNNY   54  41  62 W12       30.04F
DULUTH HARBOR  PTSUNNY   61  43  51 W13G22    30.05S
TWO HARBORS    CLOUDY    57  41  54 W10G22    30.01S
SILVER BAY     SUNNY     55  45  67 W5        30.00R
GRAND MARAIS     N/A     55  48  77 W7        29.96S
G MARAIS ARPRT CLOUDY    52  39  62 SW7G18    29.97S
$$
MNZ029>031-032-039>041-046>048-054>057-064-142100-
   West Central Minnesota

CITY           SKY/WX    TMP DP  RH WIND       PRES   REMARKS
FERGUS FALLS   PTSUNNY   55  41  58 W7        30.12F
WHEATON        CLOUDY    55  43  62 NW10      30.15S
MORRIS         CLOUDY    61  43  51 W12       30.12F
ALEXANDRIA     PTSUNNY   55  42  61 NW9       30.14S
ELBOW LAKE     CLOUDY    55  42  60 NW9       30.12F
WADENA         CLOUDY    54  43  66 NW6       30.11S
GLENWOOD       CLOUDY    57  43  58 W9G16     30.13S
APPLETON       CLOUDY    61  43  51 W5        30.13S
BENSON         CLOUDY    59  43  55 NW10      30.13F
ORTONVILLE     CLOUDY    59  39  47 W5        30.13F
MADISON        CLOUDY    63  43  48 NW7       30.13F
WILLMAR        FAIR      59  41  51 W13       30.15F
$$
MNZ033>034-036-042>043-049>051-058-059-142100-
   Central Minnesota

CITY           SKY/WX    TMP DP  RH WIND       PRES   REMARKS
ST CLOUD       PTSUNNY   63  41  44 W16       30.10F
SAUK CENTRE    MOCLDY    56  42  57 W12G18    30.12S
PAYNESVILLE    CLOUDY    56  40  55 SW8       30.12F
AITKIN         CLOUDY    59  45  58 W6        30.07F
PINE RIVER     CLOUDY    54  43  66 W12       30.12F
BRAINERD       PTSUNNY   55  41  59 W9G21     30.10F
STAPLES        CLOUDY    55  43  62 W12       30.10F
LONG PRAIRIE   PTSUNNY   55  41  58 SW9       30.12S
LITTLE FALLS   PTSUNNY   55  39  54 W5        30.10F
LITCHFIELD       N/A     61  41  48 W10       30.12F
BUFFALO        PTSUNNY   59  40  48 W9        30.12F
MAPLE LAKE     PTSUNNY   60  44  55 SW9       30.12F
$$
MNZ037-044-045-052-053-142100-
   East Central Minnesota

CITY           SKY/WX    TMP DP  RH WIND       PRES   REMARKS
PRINCETON      PTSUNNY   63  43  48 W12       30.10F
MORA           MOSUNNY   59  41  51 W13       30.10S
CAMBRIDGE      MOSUNNY   63  45  51 W7G16     30.08S
RUSH CITY      PTSUNNY   60  43  51 W10       30.09S
MOOSE LAKE     PTSUNNY   57  41  54 NW7       30.06S
HINCKLEY       FAIR      59  43  55 NW9       30.08S
CLOQUET        MOSUNNY   57  39  51 W12G20    30.05S
MCGREGOR       CLOUDY    55  43  62 W8        30.08S
$$
MNZ071>073-080-081-089-090-097-098-142100-
   Southwest Minnesota

CITY           SKY/WX    TMP DP  RH WIND       PRES   REMARKS
MONTEVIDEO     CLOUDY    64  45  48 NW6       30.14F
GRANITE FALLS  CLOUDY    61  40  45 W9        30.14F
CANBY          CLOUDY    60  37  41 NW7       30.14F
MARSHALL       CLOUDY    61  37  41 NW8       30.12F
REDWOOD FALLS  CLOUDY    61  39  44 NW9       30.12F
OLIVIA         CLOUDY    61  41  48 W10       30.13F
PIPESTONE      PTSUNNY   63  37  39 NE3       30.12F
WINDOM         PTSUNNY   64  41  42 W5        30.12F
WORTHINGTON    CLOUDY    64  41  42 CALM      30.13F
JACKSON        CLOUDY    64  41  42 S6        30.13F
TRACY          PTSUNNY   64  42  44 CALM      30.13F
SLAYTON        CLOUDY    63  36  37 CALM      30.13F
$$
MNZ065>067-074>077-082>085-091>093-142100-
   South Central Minnesota

CITY           SKY/WX    TMP DP  RH WIND       PRES   REMARKS
MANKATO        PTSUNNY   64  39  39 W14       30.12F
NEW ULM        PTSUNNY   63  39  42 W9        30.13S
ST JAMES       PTSUNNY   66  39  37 SW5       30.13F
FAIRMONT       CLOUDY    64  43  45 S6        30.13F
GLENCOE        PTSUNNY   62  36  38 W8G16     30.12F
FARIBAULT      SUNNY     70  37  30 W9        30.12F
OWATONNA       SUNNY     64  43  45 W6        30.12F
WASECA         SUNNY     63  36  36 W12       30.14F
ALBERT LEA     MOSUNNY   64  50  59 SW5       30.13S
$$
MNZ078>079-086>088-094>096-142100-
   Southeast Minnesota

CITY           SKY/WX    TMP DP  RH WIND       PRES   REMARKS
ROCHESTER      PTSUNNY   66  48  52 W13G20    30.12F
RED WING       MOSUNNY   68  37  32 W13G20    30.09F
STANTON        SUNNY     66  42  41 W10G20    30.10F
DODGE CENTER   SUNNY     64  46  52 SW9       30.12F
WINONA         PTSUNNY   70  50  49 W8G17     30.10F
AUSTIN         SUNNY     64  48  55 W12       30.12F
PRESTON        PTSUNNY   66  53  62 W13G22    30.12F
$$
ABBREVIATIONS USED IN REMARKS
   TC - TEMPERATURES IN CELSIUS
  WCI - WIND CHILL INDEX
   HX - HEAT INDEX
  VSB - VISIBILITY
$$


USA.gov is the U.S. government's official web portal to all federal, state and local government web resources and services.